CST,Max TemperatureF,Mean TemperatureF,Min TemperatureF,Max Dew PointF,MeanDew PointF,Min DewpointF,Max Humidity, Mean Humidity, Min Humidity, Max Sea Level PressureIn, Mean Sea Level PressureIn, Min Sea Level PressureIn, Max VisibilityMiles, Mean VisibilityMiles, Min VisibilityMiles, Max Wind SpeedMPH, Mean Wind SpeedMPH, Max Gust SpeedMPH,PrecipitationIn, CloudCover, Events, WindDirDegrees
2014-2-1,61,52,42,60,54,41,100,89,78,29.96,29.85,29.80,10,6,1,12,6,16,T,8,Rain,193
2014-2-2,42,39,35,40,35,31,96,89,82,30.23,30.09,29.97,10,5,1,14,7,19,0.34,8,Rain-Snow,20
2014-2-3,49,38,26,30,27,23,100,68,36,30.28,30.22,30.06,10,6,0,16,6,22,0.00,1,Fog,93
2014-2-4,37,34,31,36,31,25,100,85,69,30.09,29.99,29.88,10,4,2,21,6,26,0.22,8,Rain-Snow-Thunderstorm,98
2014-2-5,38,31,23,36,22,15,92,73,54,30.53,30.34,30.05,10,10,8,16,9,24,0.00,4,,334
2014-2-6,30,26,21,20,16,13,77,68,58,30.57,30.49,30.44,10,10,3,12,6,14,T,6,Snow,48
2014-2-7,33,29,25,28,23,18,100,81,61,30.42,30.33,30.27,10,6,0,12,6,15,0.10,8,Fog-Snow,89
2014-2-8,35,32,28,35,30,26,100,95,89,30.26,30.19,30.09,4,2,1,9,5,12,0.00,8,,90
2014-2-9,40,38,35,39,37,35,100,96,92,30.18,30.13,30.08,10,3,1,13,7,16,T,8,Snow,86
2014-2-10,38,36,34,34,31,24,100,82,64,30.29,30.23,30.17,10,5,2,14,8,17,T,8,Snow,72
2014-2-11,40,35,30,25,17,11,72,52,32,30.37,30.28,30.19,10,10,10,14,7,18,T,8,,65
2014-2-12,53,40,27,26,17,8,92,56,19,30.21,30.10,29.98,10,10,10,12,2,14,0.00,4,,18
2014-2-13,61,41,21,32,27,21,100,65,29,30.05,29.96,29.87,10,10,9,13,4,20,0.00,0,,190
2014-2-14,68,49,30,42,32,22,100,60,20,30.07,29.87,29.77,10,9,2,25,7,38,0.00,0,,357
2014-2-15,60,43,26,33,29,25,100,66,31,30.19,30.09,30.00,10,10,10,14,4,17,0.00,0,,119
2014-2-16,70,50,30,51,39,29,100,69,37,30.12,30.04,29.94,10,10,8,15,5,18,0.00,2,,111
2014-2-17,75,57,39,59,42,26,84,51,17,30.13,29.98,29.86,10,9,5,21,6,31,0.00,4,,342
2014-2-18,74,52,29,58,43,28,100,70,40,30.09,29.97,29.84,10,8,1,14,4,24,0.00,2,,179
2014-2-19,66,58,49,63,58,49,100,94,87,29.96,29.86,29.68,6,3,0,13,5,17,T,7,Fog-Rain,128
2014-2-20,76,55,33,61,48,28,87,53,18,30.06,29.76,29.63,10,10,7,31,11,44,T,4,Rain,237
2014-2-21,64,44,24,34,25,13,100,57,14,30.15,30.07,30.01,10,8,1,13,2,17,0.00,0,,191
2014-2-22,74,52,29,37,31,24,92,55,17,30.06,29.96,29.82,10,10,9,17,4,22,0.00,0,Snow,144
2014-2-23,70,54,38,52,42,36,92,72,51,30.14,29.98,29.89,10,10,9,15,5,22,0.00,4,,55
2014-2-24,51,44,36,35,30,24,79,61,42,30.22,30.14,30.08,10,10,10,15,8,21,0.00,5,,78
2014-2-25,56,50,43,40,36,32,76,60,43,30.15,30.09,30.04,10,10,5,13,4,17,T,8,Rain-Thunderstorm,77
2014-2-26,46,37,27,39,18,6,89,60,31,30.28,30.18,30.11,10,9,5,16,6,23,0.00,3,Snow,1
2014-2-27,54,35,15,29,18,12,91,57,22,30.16,30.06,29.94,10,10,9,10,2,14,0.00,0,,172
2014-2-28,45,38,31,43,38,22,92,72,52,29.95,29.88,29.83,10,5,2,15,7,22,T,6,Rain,91